Temperature
18 18 18 17 17 17 17 17 17 17 17 17 17 17 17 17 17 17 16 16 16 16 16 16 16 16 16 16 16 16 15 15 15 15 14 14 14 14 14 13 13 13 13
18 18 18 18 17 17 17 17 17 17 17 17 17 17 17 16 16 16 16 16 16 16 16 16 15 15 16 15 15 15 15 15 15 14 14 14 13 13 13 13 12 12 12
18 18 18 17 17 17 17 17 17 17 17 16 16 16 16 16 16 16 16 16 16 16 15 15 15 15 15 15 15 15 14 14 14 14 14 13 13 12 12 12 12 12 11
17 17 17 17 17 17 17 17 17 16 16 16 16 16 16 16 15 15 15 15 15 15 15 15 15 15 15 15 14 14 14 14 14 13 13 13 12 12 12 12 11 11 11
17 17 17 17 17 17 17 17 17 16 16 16 16 16 15 15 15 15 15 15 15 15 15 14 14 14 14 14 14 14 14 13 13 13 13 13 12 12 12 11 11 11 10
17 17 17 17 17 17 16 16 16 16 16 16 15 15 15 15 15 15 15 15 14 14 14 14 14 14 14 14 14 14 14 13 13 13 13 12 12 12 11 11 11 11 10
17 17 16 16 16 16 16 16 16 16 15 15 15 15 15 15 15 15 15 14 14 14 14 13 13 13 13 13 13 13 13 13 13 12 12 12 11 11 11 11 10 10 10
17 17 16 16 16 16 16 16 16 15 15 15 15 14 14 15 15 15 15 14 14 14 14 13 13 13 12 12 12 12 12 12 12 12 11 11 11 11 11 11 10 10 9
17 17 16 16 16 16 16 15 15 15 15 14 14 14 14 14 14 14 14 14 14 13 13 13 12 12 12 12 12 11 11 12 11 11 11 11 11 11 10 10 10 10 10
17 16 16 16 16 15 15 15 15 15 14 14 14 14 14 14 14 14 13 13 13 13 13 12 12 12 12 12 11 11 11 11 11 11 11 10 10 10 10 10 10 10 10
16 16 16 16 15 15 15 15 14 14 14 14 13 13 13 13 13 13 13 12 12 12 12 11 12 12 12 11 11 11 11 10 10 10 10 10 10 9 9 9 9 9 9
16 16 15 15 15 15 14 14 14 14 13 13 13 13 12 12 12 13 12 12 12 11 11 11 11 11 11 11 11 11 10 10 10 10 10 10 10 9 9 9 8 8 8
15 15 15 15 15 14 14 14 14 13 13 13 13 12 12 12 12 12 12 12 12 11 11 11 11 11 11 10 10 10 10 10 10 10 10 9 9 9 8 8 8 8 8
15 15 15 14 14 14 13 13 13 13 13 12 12 12 12 12 12 12 11 11 11 11 10 10 10 10 10 10 9 9 9 9 9 9 9 9 9 8 8 8 8 8 8
15 14 14 14 14 14 13 13 13 12 12 12 12 12 12 12 11 11 11 11 10 10 10 10 10 9 10 9 9 9 9 9 9 9 9 8 8 8 8 8 8 8 8
14 14 14 13 13 13 13 13 13 12 12 12 12 12 11 11 11 11 11 10 10 10 9 9 9 9 9 9 9 9 9 9 8 8 8 8 8 8 8 8 8 8 8
14 14 13 13 13 13 12 12 12 12 12 11 11 11 11 11 10 10 10 10 10 9 9 9 9 9 9 9 9 9 9 8 8 8 8 8 8 8 8 8 8 8 8
13 13 13 12 12 12 12 12 12 11 11 11 11 11 10 10 10 10 9 9 9 9 9 9 8 8 9 9 9 9 9 8 8 8 8 8 8 8 8 8 8 8 8
13 12 12 12 12 12 11 11 11 11 11 10 10 10 10 9 9 9 9 9 9 9 9 8 8 8 8 8 8 8 8 8 8 8 8 8 8 8 8 8 8 7 7
12 12 12 12 11 11 11 11 11 10 10 10 10 9 9 9 9 8 8 8 8 8 8 8 8 8 8 8 8 8 8 8 8 8 8 8 8 8 8 8 8 8 8
12 11 11 11 11 11 11 10 10 10 10 10 9 9 9 9 9 8 8 8 8 8 8 8 8 8 8 8 8 8 8 8 8 8 8 8 8 8 8 8 8 8 8
11 11 11 11 10 10 10 10 10 10 10 9 9 9 9 9 9 8 8 8 8 8 8 8 8 8 8 8 7 7 8 8 8 8 8 8 7 8 8 7 7 7 7
11 11 10 10 10 10 10 10 10 10 9 9 9 9 9 8 8 8 8 8 8 7 7 7 7 7 7 7 7 7 7 7 7 7 7 7 7 7 7 7 7 7 7
11 11 10 10 10 10 10 10 10 10 9 9 9 9 9 8 8 8 8 8 7 7 7 7 7 7 7 7 7 7 7 7 7 7 6 6 7 7 7 7 6 7 6
10 10 10 10 10 10 10 10 10 9 9 9 9 9 8 8 8 8 7 7 7 7 7 7 7 7 7 7 7 7 7 6 6 6 6 6 6 6 6 6 6 6 6
10 10 10 10 10 10 10 9 9 9 9 9 8 8 8 8 8 7 7 7 7 7 7 7 7 6 6 6 6 6 6 6 6 6 6 5 5 5 5 5 5 5 6
Wind_Speed
4 3 3 3 3 2 2 2 2 2 2 2 2 2 2 2 2 2 2 2 3 2 3 3 3 3 3 3 3 4 3 3 4 2 0 1 3 2 5 6 6 6 8
4 4 3 3 2 2 2 1 1 1 1 1 1 1 1 1 1 1 1 1 1 1 2 2 3 2 3 3 3 3 2 2 3 2 1 1 2 3 4 4 4 5 7
5 5 4 4 3 2 2 1 1 1 0 1 1 1 1 1 1 1 1 1 1 0 1 1 2 2 2 2 2 2 2 2 2 3 3 2 2 3 4 4 5 4 6
5 5 4 3 3 3 2 2 2 1 1 1 1 1 1 1 1 1 1 1 1 0 0 1 1 1 1 1 1 1 1 1 2 3 3 3 3 3 4 4 4 4 3
4 4 4 3 3 3 3 2 2 2 1 1 1 1 1 1 0 0 1 1 1 1 1 1 2 3 5 3 1 1 1 2 3 3 3 3 3 4 4 3 4 4 3
4 4 3 3 3 3 3 3 3 2 2 2 2 1 1 1 4 3 1 1 1 1 1 1 2 3 4 5 5 5 4 1 2 2 3 3 3 4 3 4 3 3 2
4 3 3 3 3 3 3 3 3 3 3 3 2 2 2 3 4 3 2 1 2 2 2 1 1 3 2 3 4 4 4 4 2 1 1 2 3 3 3 4 4 3 1
4 3 3 3 3 3 3 4 3 3 3 3 3 3 3 4 4 3 1 2 3 3 3 2 2 2 2 1 2 3 3 3 2 1 1 1 1 2 3 4 4 4 3
4 4 4 3 3 4 3 4 4 3 3 2 3 3 3 4 4 2 2 3 3 3 3 3 2 2 3 2 2 3 3 3 6 7 6 6 6 4 1 3 4 4 2
3 3 3 3 3 4 4 3 3 3 3 3 3 3 3 3 3 2 4 2 3 3 3 4 6 4 3 2 2 2 3 3 4 5 5 5 5 4 3 1 2 2 1
3 3 3 3 3 3 4 3 4 4 4 3 4 3 3 3 3 2 4 1 2 2 3 3 4 5 4 4 2 2 2 1 3 4 4 4 4 3 3 2 1 0 0
3 3 3 3 3 3 4 4 4 4 4 4 3 3 2 2 2 3 3 4 4 3 3 3 5 5 5 4 3 3 2 3 2 2 3 3 2 2 3 3 2 2 1
3 3 2 2 3 3 4 4 4 4 3 3 3 3 2 2 3 5 5 4 4 3 4 7 6 4 4 4 4 0 2 1 2 2 2 2 2 2 2 2 3 2 2
3 2 2 2 3 4 3 3 3 3 3 3 3 2 3 3 3 3 4 4 4 4 4 5 4 2 1 3 3 2 1 1 1 1 1 1 2 2 2 1 1 1 1
3 2 2 2 4 4 3 2 2 2 1 1 2 3 2 3 2 2 2 3 2 3 3 3 3 3 3 2 2 1 1 2 1 1 1 1 1 1 1 1 1 1 1
2 2 2 3 3 3 4 4 7 5 6 6 5 3 3 5 6 4 4 5 4 2 2 2 2 2 2 2 2 2 2 1 1 1 1 1 1 1 1 1 1 2 2
1 2 2 2 2 2 3 3 3 4 6 6 5 4 4 5 5 4 4 4 3 2 2 1 1 1 1 1 1 1 1 1 1 2 2 2 2 2 2 2 2 2 3
2 2 2 2 2 2 2 2 3 3 3 3 4 5 5 6 5 4 5 5 3 2 1 1 1 1 1 1 1 1 1 1 2 2 3 3 3 3 3 3 3 3 3
3 2 2 2 2 3 3 3 3 3 3 3 4 4 5 5 5 4 4 2 2 2 2 1 1 1 1 2 2 2 2 2 2 3 3 3 4 4 4 4 3 3 5
3 4 2 3 3 3 3 3 3 3 3 4 3 3 3 3 3 3 2 1 1 1 1 1 1 1 1 2 2 2 3 3 3 4 4 4 4 4 5 5 5 5 6
3 4 3 3 3 3 3 3 3 3 3 3 3 3 2 3 2 2 2 1 1 1 1 1 1 2 2 2 2 3 4 3 4 4 4 5 5 5 6 6 6 7 6
3 3 3 3 3 3 3 3 2 2 3 2 3 4 3 2 1 1 1 1 1 0 1 1 2 2 2 2 2 3 4 4 4 5 5 6 6 6 7 7 7 7 7
3 3 4 3 3 4 3 3 3 2 2 2 3 3 3 1 1 1 0 0 0 0 1 2 3 3 2 3 3 3 4 4 5 5 6 6 6 7 7 7 8 8 8
3 3 4 4 3 3 2 3 3 3 3 2 2 2 2 2 1 1 1 0 1 1 2 2 3 3 3 3 3 3 3 5 7 7 7 7 7 7 7 7 8 9 8
3 3 3 3 3 2 2 2 2 2 2 2 2 2 1 1 1 1 1 0 1 1 2 2 2 2 2 3 3 4 6 7 8 9 8 8 8 8 8 9 8 9 9
3 3 3 3 2 2 2 2 1 1 1 2 2 1 1 1 1 1 0 0 1 1 1 1 2 2 2 2 3 5 5 5 7 9 9 8 7 7 7 8 9 9 10
Wind_Direction
183 185 183 184 185 200 223 242 253 262 247 243 244 233 220 219 224 229 237 233 233 238 245 241 247 265 265 259 259 261 257 247 242 255 31 117 128 126 117 116 114 107 99
171 173 172 176 179 196 207 224 244 254 236 222 219 201 207 199 201 210 237 236 240 245 255 257 262 260 257 269 262 254 250 238 223 211 209 175 140 134 126 122 112 104 97
166 166 169 174 176 189 195 176 132 108 150 177 185 182 180 193 184 183 199 213 226 254 265 264 271 272 270 276 271 257 238 213 192 186 185 155 134 130 126 119 108 106 103
160 160 163 171 177 180 168 153 145 127 105 114 156 151 172 184 168 161 171 182 190 206 313 295 300 294 281 263 242 244 229 184 163 167 162 156 144 146 153 145 136 128 118
156 154 155 158 164 168 157 153 143 132 133 132 123 142 163 165 121 154 164 168 176 152 110 78 63 62 45 26 11 22 208 192 163 161 161 158 159 164 177 168 148 133 120
159 155 148 147 148 148 146 143 137 130 127 119 107 103 101 76 57 27 345 149 155 154 138 119 118 104 101 87 62 53 43 119 166 172 176 172 174 182 175 166 161 161 152
151 145 144 142 136 140 142 141 135 127 119 108 99 91 90 79 70 53 9 119 113 93 96 97 91 88 110 115 124 131 86 52 29 257 163 189 183 184 180 173 168 170 138
146 150 158 158 149 142 147 143 140 131 118 106 95 88 85 82 73 58 359 128 108 99 91 91 92 85 63 68 115 109 98 78 61 97 97 101 123 150 179 177 169 162 138
153 159 164 172 171 156 150 149 142 136 126 117 105 99 96 89 68 30 317 126 116 103 88 70 72 88 36 328 139 126 113 106 85 79 74 82 84 93 116 174 172 177 169
162 165 163 169 167 161 152 148 141 142 139 131 107 98 99 98 79 21 316 130 115 108 98 90 64 52 35 354 145 133 124 107 110 111 103 111 111 112 116 150 189 193 190
148 147 148 155 159 154 140 143 145 140 128 118 111 105 99 93 108 59 343 27 121 118 109 98 80 73 56 33 24 73 71 100 131 129 120 111 110 108 105 94 60 0 256
144 149 151 153 155 140 142 144 145 142 142 141 137 128 118 111 89 100 48 24 12 89 88 90 90 87 79 61 73 59 313 271 138 120 111 106 110 109 98 95 85 68 38
133 137 140 141 134 136 146 145 149 157 165 165 166 165 147 131 114 112 106 79 43 74 77 72 86 115 135 116 105 258 265 164 111 116 113 105 96 98 116 131 139 150 163
118 126 132 137 129 128 138 144 151 163 180 180 176 177 154 143 131 132 132 130 131 118 106 115 137 139 114 88 145 181 143 73 75 109 99 101 118 135 157 166 175 182 185
124 141 151 149 139 134 120 92 132 99 98 191 179 175 169 159 116 87 130 137 132 116 133 143 149 158 156 152 149 132 146 163 173 165 163 165 175 180 186 194 216 224 222
141 150 146 143 144 143 135 106 59 67 65 51 34 33 86 87 112 108 93 89 88 115 180 152 163 182 178 176 180 170 178 185 197 200 212 208 205 210 206 207 228 244 247
121 123 117 124 133 139 149 154 136 98 81 70 64 60 77 108 115 122 131 131 135 179 191 156 164 193 224 225 226 222 198 176 229 240 239 239 237 233 234 239 241 250 254
105 100 111 121 126 128 134 138 141 142 132 112 92 93 112 126 133 140 151 147 136 173 202 179 211 241 258 275 272 260 241 212 224 236 236 240 243 244 246 249 250 267 270
100 102 108 114 118 115 114 115 121 126 121 114 112 110 128 142 143 150 171 170 153 179 197 212 252 280 279 273 278 277 270 263 258 257 249 245 246 249 253 254 253 254 267
94 79 100 121 120 120 120 121 122 125 122 116 118 121 139 155 150 153 178 197 197 207 221 231 255 283 273 271 271 272 269 265 255 252 255 254 253 253 252 255 258 256 257
115 120 137 127 116 119 121 123 122 121 126 134 135 127 171 171 165 167 173 186 214 228 235 263 269 266 260 260 271 275 279 278 270 265 258 255 257 258 260 260 260 262 266
125 130 128 117 117 117 113 112 113 121 131 132 122 131 168 204 164 154 166 174 198 263 303 294 287 285 284 283 284 282 279 284 290 281 271 265 261 262 264 265 267 270 270
136 130 123 119 119 126 132 123 126 125 121 117 117 123 140 145 109 92 108 87 55 308 276 270 279 286 285 278 277 282 290 297 297 295 290 282 278 274 272 272 272 274 273
131 128 125 124 121 117 119 127 128 119 114 110 104 109 128 148 168 178 227 240 274 283 278 271 275 288 299 295 287 291 319 323 311 297 292 289 284 282 281 279 278 278 277
135 132 127 122 127 133 132 121 109 103 106 110 102 99 118 141 170 192 207 228 255 278 283 272 276 287 298 301 318 336 359 346 322 310 292 280 280 283 284 282 281 281 279
126 126 122 119 123 119 115 113 108 108 114 119 114 114 120 130 125 114 111 341 296 280 280 275 311 330 334 330 354 360 356 332 315 306 294 284 283 283 287 284 285 282 282
Height
1547 1547 1548 1548 1549 1549 1549 1549 1549 1549 1549 1549 1549 1550 1550 1550 1551 1551 1551 1551 1551 1551 1551 1552 1551 1551 1552 1552 1552 1552 1552 1552 1552 1553 1553 1553 1553 1553 1553 1553 1553 1553 1553
1545 1546 1547 1547 1547 1548 1548 1548 1548 1547 1547 1547 1548 1548 1548 1548 1548 1549 1549 1549 1549 1549 1549 1549 1549 1549 1549 1549 1549 1549 1549 1549 1549 1549 1550 1550 1550 1550 1550 1551 1551 1551 1551
1544 1545 1546 1546 1546 1547 1547 1547 1546 1546 1546 1546 1546 1547 1547 1547 1547 1547 1547 1547 1547 1547 1547 1546 1546 1546 1546 1546 1545 1546 1546 1546 1546 1547 1547 1548 1548 1548 1548 1549 1549 1549 1550
1544 1544 1545 1545 1545 1546 1545 1545 1545 1545 1545 1545 1545 1545 1545 1545 1545 1545 1545 1545 1545 1545 1544 1544 1544 1543 1543 1543 1543 1543 1543 1544 1544 1545 1545 1546 1546 1546 1547 1548 1548 1548 1549
1543 1544 1544 1544 1544 1544 1544 1544 1544 1544 1544 1544 1544 1544 1544 1544 1544 1544 1544 1544 1543 1543 1542 1542 1541 1541 1541 1541 1541 1541 1541 1542 1542 1543 1543 1544 1544 1545 1546 1546 1547 1547 1547
1542 1543 1543 1543 1543 1543 1543 1543 1543 1543 1543 1543 1543 1543 1543 1543 1542 1542 1542 1542 1542 1541 1541 1540 1539 1539 1539 1539 1539 1539 1540 1540 1540 1541 1542 1542 1542 1543 1544 1544 1545 1546 1546
1541 1542 1542 1542 1542 1543 1543 1543 1543 1542 1542 1542 1542 1542 1541 1541 1541 1541 1541 1541 1540 1539 1539 1539 1539 1538 1538 1537 1537 1538 1538 1538 1539 1540 1540 1540 1541 1541 1542 1542 1543 1544 1544
1539 1540 1541 1541 1541 1541 1541 1541 1541 1542 1542 1541 1541 1541 1540 1540 1540 1540 1540 1540 1539 1538 1538 1538 1537 1537 1536 1537 1537 1537 1537 1537 1538 1538 1538 1539 1539 1539 1540 1541 1541 1542 1542
1538 1538 1539 1539 1539 1539 1539 1539 1540 1540 1541 1541 1540 1540 1539 1539 1539 1539 1539 1539 1538 1537 1537 1537 1536 1536 1536 1536 1536 1536 1537 1537 1537 1537 1537 1537 1537 1538 1538 1540 1540 1540 1541
1537 1537 1537 1538 1538 1538 1537 1538 1538 1539 1540 1540 1539 1539 1539 1539 1539 1538 1538 1538 1537 1537 1536 1536 1535 1535 1535 1536 1536 1536 1537 1537 1537 1537 1537 1536 1536 1536 1537 1537 1538 1538 1539
1536 1536 1536 1536 1536 1536 1536 1537 1537 1537 1538 1538 1538 1538 1538 1538 1538 1538 1537 1537 1537 1537 1536 1536 1535 1535 1535 1535 1535 1536 1536 1536 1536 1536 1536 1536 1536 1536 1536 1536 1536 1536 1537
1534 1535 1535 1535 1535 1535 1535 1535 1535 1536 1536 1537 1537 1537 1537 1537 1537 1536 1536 1536 1536 1536 1536 1536 1535 1535 1535 1535 1535 1535 1535 1536 1537 1536 1536 1536 1536 1535 1535 1535 1534 1534 1534
1533 1533 1534 1534 1534 1533 1533 1533 1534 1534 1535 1536 1536 1536 1536 1536 1535 1535 1535 1535 1535 1535 1535 1535 1535 1535 1534 1535 1534 1534 1535 1536 1536 1536 1535 1535 1535 1534 1534 1534 1534 1534 1534
1532 1532 1532 1532 1532 1532 1531 1532 1533 1533 1534 1534 1535 1534 1534 1534 1534 1533 1533 1534 1534 1534 1534 1534 1534 1534 1534 1534 1534 1534 1535 1535 1535 1535 1535 1535 1534 1534 1534 1534 1534 1534 1534
1530 1530 1530 1531 1530 1530 1531 1531 1531 1531 1532 1533 1533 1533 1533 1533 1533 1533 1533 1533 1533 1534 1534 1534 1534 1534 1534 1534 1534 1534 1534 1534 1534 1534 1534 1534 1534 1534 1534 1534 1534 1534 1533
1529 1528 1529 1529 1529 1529 1529 1529 1529 1530 1530 1531 1531 1531 1531 1531 1531 1531 1531 1531 1531 1532 1533 1533 1533 1533 1533 1533 1533 1533 1533 1533 1533 1533 1533 1533 1533 1533 1533 1533 1533 1533 1532
1528 1527 1527 1528 1528 1528 1528 1528 1529 1529 1529 1529 1529 1529 1529 1529 1530 1530 1530 1530 1530 1531 1532 1533 1533 1533 1533 1533 1533 1532 1532 1532 1532 1532 1532 1532 1532 1532 1532 1532 1532 1531 1531
1527 1527 1526 1526 1527 1527 1527 1527 1528 1528 1528 1528 1528 1528 1528 1528 1528 1528 1529 1529 1529 1530 1531 1532 1532 1532 1532 1532 1532 1531 1531 1531 1531 1531 1531 1531 1530 1530 1530 1530 1530 1530 1529
1526 1526 1526 1526 1526 1526 1526 1526 1527 1527 1527 1527 1527 1527 1527 1527 1527 1527 1527 1528 1529 1529 1530 1531 1531 1531 1531 1531 1530 1530 1530 1529 1529 1529 1529 1529 1529 1528 1528 1528 1527 1527 1526
1525 1525 1525 1525 1525 1526 1526 1526 1526 1526 1527 1527 1527 1526 1526 1527 1527 1527 1527 1527 1528 1529 1529 1530 1529 1529 1529 1529 1529 1528 1528 1527 1527 1527 1527 1526 1526 1526 1526 1525 1525 1524 1523
1524 1524 1524 1525 1525 1525 1525 1526 1526 1526 1526 1527 1527 1527 1526 1527 1527 1527 1527 1527 1528 1528 1528 1528 1528 1528 1528 1527 1527 1526 1526 1526 1525 1525 1524 1523 1523 1523 1523 1522 1522 1521 1520
1524 1524 1524 1524 1524 1525 1525 1526 1526 1526 1526 1526 1526 1526 1526 1527 1527 1527 1527 1527 1527 1527 1527 1527 1527 1527 1526 1526 1525 1524 1524 1523 1522 1522 1521 1520 1520 1520 1519 1518 1518 1517 1516
1524 1524 1524 1524 1525 1525 1525 1525 1526 1526 1526 1526 1526 1526 1526 1526 1526 1526 1526 1526 1526 1526 1526 1526 1525 1525 1525 1524 1523 1523 1522 1521 1520 1519 1518 1517 1516 1516 1515 1514 1514 1513 1512
1523 1523 1524 1524 1525 1525 1525 1525 1526 1526 1526 1525 1526 1526 1526 1525 1525 1525 1525 1525 1525 1525 1525 1524 1524 1524 1523 1522 1521 1520 1519 1518 1517 1516 1515 1514 1513 1512 1512 1511 1510 1509 1508
1523 1523 1524 1524 1524 1525 1525 1525 1525 1525 1525 1525 1525 1525 1525 1524 1524 1524 1524 1524 1524 1524 1523 1523 1522 1522 1521 1520 1519 1518 1516 1515 1513 1512 1511 1511 1510 1509 1508 1507 1506 1505 1504
1522 1523 1523 1523 1524 1524 1525 1524 1524 1524 1524 1524 1524 1524 1524 1524 1524 1523 1523 1523 1523 1522 1522 1521 1520 1520 1519 1517 1516 1514 1513 1511 1510 1509 1508 1507 1507 1505 1504 1503 1502 1501 1499